GW6374 Weather Reports


time (UTC)temp
F
wind
direction
speed
knots
gust
knots
rain 1hr
in
rain 24hr
in
rain mn
in
humidity
%
barometer
mb
20260505112056 65 121 4.3 5.2 0.00 0.02 0.02 66 1000.8
20260505111550 65 115 3.5 4.3 0.00 0.02 0.02 66 1000.6
20260505111046 65 111 1.7 6.1 0.00 0.02 0.02 66 1000.7
20260505110543 65 91 2.6 4.3 0.00 0.02 0.02 67 1000.7
20260505102015 61 115 3.5 4.3 0.00 0.02 0.02 74 1000.1
20260505101513 61 112 4.3 4.3 0.00 0.02 0.02 74 999.7
20260505101009 61 98 1.7 4.3 0.00 0.02 0.02 75 999.9
20260505100507 61 121 2.6 4.3 0.00 0.02 0.02 75 1000.0
20260505100003 60 101 3.5 3.5 0.00 0.02 0.02 76 999.8
20260505095459 60 93 1.7 3.5 0.00 0.02 0.02 76 999.9
20260505094955 60 91 1.7 3.5 0.00 0.02 0.02 77 999.9
20260505094453 60 108 2.6 4.3 0.00 0.02 0.02 78 999.8
20260505093949 60 124 2.6 3.5 0.00 0.02 0.02 78 999.8
20260505093445 60 82 1.7 3.5 0.00 0.02 0.02 78 999.8
20260505092943 60 42 1.7 2.6 0.00 0.02 0.02 78 999.7
20260505092440 60 116 1.7 3.5 0.00 0.02 0.02 78 999.8
20260505091938 60 113 3.5 4.3 0.00 0.02 0.02 79 999.6
20260505091435 60 111 3.5 3.5 0.00 0.02 0.02 79 999.9
20260505090933 59 99 2.6 4.3 0.00 0.02 0.02 80 999.7
20260505090431 59 131 2.6 5.2 0.00 0.02 0.02 80 999.8
20260505085928 59 108 4.3 4.3 0.00 0.02 0.02 80 999.9
20260505085426 59 88 1.7 4.3 0.00 0.02 0.02 81 1000.0
20260505084924 59 129 4.3 5.2 0.00 0.02 0.02 81 1000.0
20260505084422 59 94 3.5 4.3 0.00 0.02 0.02 82 1000.1
20260505083920 59 108 2.6 3.5 0.00 0.02 0.02 82 1000.1
20260505083417 59 79 2.6 5.2 0.00 0.02 0.02 82 1000.0
20260505082913 59 103 2.6 4.3 0.00 0.02 0.02 82 1000.3
20260505082409 59 93 1.7 5.2 0.00 0.02 0.02 82 1000.1
20260505081906 59 78 1.7 4.3 0.00 0.02 0.02 81 1000.2
20260505081403 59 101 1.7 4.3 0.00 0.02 0.02 81 1000.1
20260505080859 59 94 2.6 6.1 0.00 0.02 0.02 81 1000.3
20260505080355 60 110 3.5 4.3 0.00 0.02 0.02 81 1000.1
20260505075851 60 112 1.7 4.3 0.00 0.02 0.02 80 1000.1
20260505075348 60 86 1.7 4.3 0.00 0.02 0.02 80 1000.2
20260505074845 60 98 3.5 4.3 0.00 0.02 0.02 80 1000.2
20260505074342 60 88 1.7 5.2 0.00 0.02 0.02 80 1000.2
20260505073840 60 97 2.6 5.2 0.00 0.02 0.02 81 1000.4
20260505073337 60 142 1.7 4.3 0.00 0.02 0.02 81 1000.2
20260505072834 60 92 1.7 5.2 0.00 0.02 0.02 81 1000.3
20260505072330 60 89 2.6 5.2 0.02 0.02 0.02 81 1000.1
20260505071826 60 98 2.6 4.3 0.02 0.02 0.02 82 1000.0
20260505071323 60 139 3.5 4.3 0.02 0.02 0.02 81 1000.4
20260505070821 61 109 2.6 5.2 0.12 0.02 0.02 78 1000.7
20260505070318 62 138 2.6 5.2 0.02 0.00 0.00 74 1001.5
20260505065813 62 104 3.5 5.2 0.00 0.00 0.00 72 1001.2
20260505065310 62 108 2.6 5.2 0.00 0.00 0.00 71 1001.1
20260505064807 63 114 4.3 5.2 0.00 0.00 0.00 70 1001.4
20260505064304 63 107 2.6 4.3 0.00 0.00 0.00 68 1001.0
20260505063802 64 97 3.5 5.2 0.00 0.00 0.00 66 1001.1
20260505063258 64 139 3.5 4.3 0.00 0.00 0.00 66 1001.0
20260505062754 64 129 5.2 7.0 0.00 0.00 0.00 65 1001.4
20260505062252 64 106 2.6 7.0 0.00 0.00 0.00 65 1001.2
20260505061748 64 110 2.6 4.3 0.00 0.00 0.00 64 1001.2
20260505061246 64 110 3.5 5.2 0.00 0.00 0.00 63 1001.1
20260505060743 64 113 1.7 7.0 0.00 0.00 0.00 63 1001.2
20260505060241 64 86 1.7 5.2 0.00 0.00 0.00 63 1001.3
20260505055736 64 122 2.6 5.2 0.00 0.00 0.00 63 1001.0
20260505055232 65 104 2.6 7.0 0.00 0.00 0.00 63 1001.0
20260505054730 65 149 5.2 6.1 0.00 0.00 0.00 63 1001.2
20260505054228 64 107 3.5 5.2 0.00 0.00 0.00 63 1001.2
20260505053726 64 109 2.6 5.2 0.00 0.00 0.00 63 1001.1
20260505053222 64 92 2.6 5.2 0.00 0.00 0.00 63 1001.2
20260505052719 64 117 2.6 4.3 0.00 0.00 0.00 63 1001.2
20260505052216 64 140 1.7 4.3 0.00 0.00 0.00 64 1001.2
20260505051713 63 125 1.7 5.2 0.00 0.00 0.00 64 1001.2
20260505051211 63 85 3.5 5.2 0.00 0.00 0.00 64 1001.2
20260505050709 63 100 3.5 5.2 0.00 0.00 0.00 63 1001.2
20260505050207 63 102 2.6 5.2 0.00 0.00 0.00 63 1001.0
20260505041642 61 107 2.6 3.5 0.00 0.00 0.00 62 1001.0
20260505041140 61 113 2.6 2.6 0.00 0.00 0.00 63 1001.2
20260505040636 61 101 0.9 3.5 0.00 0.00 0.00 62 1001.1
20260505040134 62 45 2.6 3.5 0.00 0.00 0.00 62 1001.3
20260505035630 62 116 2.6 3.5 0.00 0.00 0.00 62 1001.4
20260505035126 62 126 2.6 3.5 0.00 0.00 0.00 61 1001.5
20260505034623 62 105 1.7 3.5 0.00 0.00 0.00 61 1001.6
20260505034120 62 103 1.7 2.6 0.00 0.00 0.00 60 1001.7
20260505033616 62 78 2.6 4.3 0.00 0.00 0.00 59 1001.7
20260505033115 63 100 1.7 4.3 0.00 0.00 0.00 57 1001.9
20260505032613 63 117 3.5 4.3 0.00 0.00 0.00 55 1001.9
20260505032109 63 100 2.6 4.3 0.00 0.00 0.00 54 1002.0
20260505031606 62 124 3.5 4.3 0.00 0.00 0.00 53 1002.0
20260505031102 62 115 2.6 5.2 0.00 0.00 0.00 52 1002.1
20260505030559 62 78 1.7 3.5 0.00 0.00 0.00 53 1001.9
20260505030055 61 105 2.6 4.3 0.00 0.00 0.00 53 1002.0
20260505025551 60 118 0.9 4.3 0.00 0.00 0.00 54 1002.0
20260505025050 60 98 1.7 3.5 0.00 0.00 0.00 57 1001.7
20260505024547 60 96 1.7 2.6 0.00 0.00 0.00 59 1001.7
20260505024044 59 105 2.6 3.5 0.00 0.00 0.00 59 1001.9
20260505023541 59 87 1.7 3.5 0.00 0.00 0.00 61 1002.0
20260505023039 58 94 2.6 3.5 0.00 0.00 0.00 62 1001.7
20260505022536 58 120 2.6 3.5 0.00 0.00 0.00 62 1002.1
20260505022033 58 114 2.6 2.6 0.00 0.00 0.00 62 1001.9
20260505021530 58 100 1.7 3.5 0.00 0.00 0.00 61 1001.9
20260505021027 58 110 2.6 3.5 0.00 0.00 0.00 61 1002.0
20260505020526 59 109 1.7 3.5 0.00 0.00 0.00 62 1002.1
20260505020024 59 106 2.6 2.6 0.00 0.00 0.00 62 1001.9
20260505015521 59 101 1.7 2.6 0.00 0.00 0.00 63 1001.9
20260505015017 59 121 2.6 2.6 0.00 0.00 0.00 61 1002.2
20260505014514 59 113 1.7 3.5 0.00 0.00 0.00 61 1002.1
20260505014012 59 101 1.7 3.5 0.00 0.00 0.00 61 1002.2
20260505013509 59 129 3.5 3.5 0.00 0.00 0.00 59 1002.2
20260505013006 60 117 1.7 3.5 0.00 0.00 0.00 59 1002.2
20260505012504 60 124 1.7 3.5 0.00 0.00 0.00 58 1002.0
20260505012000 60 148 3.5 4.3 0.00 0.00 0.00 56 1002.1
20260505011456 60 122 3.5 4.3 0.00 0.00 0.00 56 1002.3
20260505010953 61 138 3.5 3.5 0.00 0.00 0.00 54 1002.1
20260505010449 61 132 3.5 4.3 0.00 0.00 0.00 54 1002.0
20260505005945 62 141 3.5 4.3 0.00 0.00 0.00 53 1001.9
20260505005442 62 127 3.5 3.5 0.00 0.00 0.00 52 1002.1
20260505004940 63 138 2.6 3.5 0.00 0.00 0.00 50 1002.1
20260505004436 63 128 2.6 4.3 0.00 0.00 0.00 48 1002.0
20260505003933 63 129 3.5 4.3 0.00 0.00 0.00 48 1002.1
20260505003430 64 130 3.5 4.3 0.00 0.00 0.00 48 1002.0
20260505002927 65 119 3.5 4.3 0.00 0.00 0.00 46 1001.9
20260505002423 65 121 3.5 3.5 0.00 0.00 0.00 46 1002.0
20260505001921 66 120 3.5 4.3 0.00 0.00 0.00 45 1001.9
20260505001419 67 113 3.5 3.5 0.00 0.00 0.00 43 1001.9
20260505000916 67 107 2.6 3.5 0.00 0.00 0.00 42 1002.0
20260505000414 68 118 3.5 4.3 0.00 0.00 0.00 40 1002.0
20260504235910 68 116 3.5 4.3 0.00 0.00 0.00 40 1002.0
20260504235408 68 118 2.6 4.3 0.00 0.00 0.00 39 1002.0
20260504234903 69 89 2.6 4.3 0.00 0.00 0.00 39 1002.0
20260504234401 69 115 2.6 4.3 0.00 0.00 0.00 38 1002.1
20260504233857 70 117 3.5 3.5 0.00 0.00 0.00 37 1002.4
20260504233353 70 122 2.6 3.5 0.00 0.00 0.00 37 1002.2
20260504232850 70 124 3.5 3.5 0.00 0.00 0.00 36 1002.3
20260504232347 70 110 1.7 3.5 0.00 0.00 0.00 37 1002.2
20260504231844 70 123 2.6 3.5 0.00 0.00 0.00 35 1002.2
20260504231340 70 116 2.6 5.2 0.00 0.00 0.00 35 1002.2
20260504230836 71 120 3.5 4.3 0.00 0.00 0.00 35 1002.2
20260504230335 71 106 3.5 3.5 0.00 0.00 0.00 35 1002.2
20260504225833 71 172 1.7 4.3 0.00 0.00 0.00 34 1002.1
20260504225329 72 154 1.7 4.3 0.00 0.00 0.00 35 1002.2
20260504224827 72 114 3.5 4.3 0.00 0.00 0.00 33 1002.3
20260504224323 72 105 2.6 7.0 0.00 0.00 0.00 33 1002.0
20260504223820 73 242 7.0 7.0 0.00 0.00 0.00 33 1002.0
20260504223315 73 123 4.3 7.8 0.00 0.00 0.00 33 1002.0
20260504222812 73 112 3.5 13.0 0.00 0.00 0.00 32 1002.1
20260504222309 73 103 1.7 5.2 0.00 0.00 0.00 33 1002.1
20260504221808 73 200 3.5 7.0 0.00 0.00 0.00 32 1001.9
20260504221304 73 117 2.6 7.0 0.00 0.00 0.00 33 1002.1
20260504220801 74 175 5.2 6.1 0.00 0.00 0.00 32 1002.0
20260504220258 75 148 3.5 6.1 0.00 0.00 0.00 31 1002.2
20260504215755 75 86 2.6 10.4 0.00 0.00 0.00 31 1001.9
20260504215251 75 182 3.5 5.2 0.00 0.00 0.00 31 1001.8
20260504214747 75 93 2.6 6.1 0.00 0.00 0.00 33 1002.1
20260504214244 75 124 3.5 4.3 0.00 0.00 0.00 32 1002.0
20260504213741 75 121 5.2 7.8 0.00 0.00 0.00 31 1002.0
20260504213237 75 100 2.6 3.5 0.00 0.00 0.00 32 1002.0
20260504212734 75 157 2.6 8.7 0.00 0.00 0.00 31 1002.1
20260504212231 75 125 2.6 4.3 0.00 0.00 0.00 32 1002.0
20260504211728 76 96 3.5 7.8 0.00 0.00 0.00 32 1002.0
20260504211224 77 167 2.6 6.1 0.00 0.00 0.00 31 1002.2
20260504210722 77 285 4.3 5.2 0.00 0.00 0.00 31 1002.1
20260504210219 77 138 1.7 4.3 0.00 0.00 0.00 35 1002.2
20260504205716 77 149 0.9 5.2 0.00 0.00 0.00 33 1002.2
20260504205214 76 112 3.5 5.2 0.00 0.00 0.00 33 1002.0
20260504204712 76 113 2.6 9.6 0.00 0.00 0.00 34 1002.2
20260504204210 76 100 3.5 13.0 0.00 0.00 0.00 33 1002.1
20260504203709 76 155 3.5 5.2 0.00 0.00 0.00 35 1002.2
20260504203206 76 205 3.5 7.8 0.00 0.00 0.00 33 1002.1
20260504202706 75 192 2.6 11.3 0.00 0.00 0.00 35 1002.3
20260504202203 75 89 3.5 6.1 0.00 0.00 0.00 35 1002.3
20260504201700 75 125 3.5 9.6 0.00 0.00 0.00 35 1002.6
20260504201157 75 113 4.3 13.9 0.00 0.00 0.00 35 1002.6
20260504200655 75 127 5.2 5.2 0.00 0.00 0.00 37 1002.5
20260504200151 75 150 1.7 6.1 0.00 0.00 0.00 35 1002.6
20260504195647 76 226 7.8 13.0 0.00 0.00 0.00 36 1002.7
20260504195143 75 122 3.5 5.2 0.00 0.00 0.00 35 1002.8
20260504194640 75 122 6.1 7.0 0.00 0.00 0.00 37 1002.9
20260504194136 75 80 3.5 5.2 0.00 0.00 0.00 38 1003.1
20260504193633 75 117 4.3 6.1 0.00 0.00 0.00 36 1003.1
20260504193131 75 104 5.2 6.1 0.00 0.00 0.00 37 1003.0
20260504192629 75 160 1.7 6.1 0.00 0.00 0.00 37 1003.0
20260504192126 75 133 5.2 11.3 0.00 0.00 0.00 37 1003.4
20260504191625 74 100 3.5 6.1 0.00 0.00 0.00 38 1003.3
20260504191121 74 157 4.3 11.3 0.00 0.00 0.00 39 1003.3
20260504190617 75 139 3.5 12.2 0.00 0.00 0.00 40 1003.4
20260504190114 74 106 3.5 5.2 0.00 0.00 0.00 39 1003.4
20260504185610 74 126 3.5 13.9 0.00 0.00 0.00 37 1003.5
20260504185107 74 116 4.3 4.3 0.00 0.00 0.00 41 1003.8
20260504184602 73 123 3.5 5.2 0.00 0.00 0.00 40 1003.7
20260504184058 73 97 2.6 6.1 0.00 0.00 0.00 39 1003.8
20260504183555 74 92 3.5 6.1 0.00 0.00 0.00 40 1003.8
20260504183053 74 121 5.2 5.2 0.00 0.00 0.00 41 1003.9
20260504182550 74 125 4.3 6.1 0.00 0.00 0.00 41 1003.7
20260504182047 73 166 2.6 7.8 0.00 0.00 0.00 42 1003.9
20260504181544 73 126 2.6 7.0 0.00 0.00 0.00 41 1003.9
20260504181042 73 99 1.7 5.2 0.00 0.00 0.00 42 1004.0
20260504180541 73 107 4.3 5.2 0.00 0.00 0.00 42 1004.0
20260504180040 72 108 3.5 5.2 0.00 0.00 0.00 42 1004.2
20260504175536 72 141 2.6 10.4 0.00 0.00 0.00 43 1004.3
20260504175033 73 99 5.2 6.1 0.00 0.00 0.00 41 1004.1
20260504174531 72 120 2.6 5.2 0.00 0.00 0.00 41 1004.3
20260504174028 71 124 5.2 7.0 0.00 0.00 0.00 42 1004.5
20260504173525 71 120 2.6 8.7 0.00 0.00 0.00 42 1004.3
20260504173022 71 110 3.5 12.2 0.00 0.00 0.00 43 1004.5
20260504172518 71 230 7.0 7.0 0.00 0.00 0.00 43 1004.4
20260504172014 71 97 2.6 6.1 0.00 0.00 0.00 43 1004.5
20260504171512 71 113 5.2 7.0 0.00 0.00 0.00 42 1004.5
20260504171008 71 88 3.5 6.1 0.00 0.00 0.00 43 1004.5
20260504170504 70 74 1.7 5.2 0.00 0.00 0.00 44 1004.6
20260504160425 69 211 4.3 11.3 0.00 0.00 0.00 43 1004.9
20260504150848 66 112 4.3 6.1 0.00 0.00 0.00 45 1005.3
20260504150345 65 94 3.5 6.1 0.00 0.00 0.00 46 1005.3
20260504141315 65 106 5.2 11.3 0.00 0.00 0.00 45 1005.3
20260504140811 64 143 3.5 5.2 0.00 0.00 0.00 46 1005.2
20260504140307 64 164 2.6 7.0 0.00 0.00 0.00 46 1005.3
20260504130736 62 162 3.5 7.8 0.00 0.00 0.00 47 1005.8
20260504130232 61 103 2.6 5.2 0.00 0.00 0.00 47 1005.7
20260504120156 58 187 4.3 5.2 0.00 0.00 0.00 52 1006.1